FDX10P SAEZ-SCEL

Flight info

Callsign FDX10P
Flight time 1h 39m
Altitude 36000
Route URINO1E URINO UL405 UMKAL UMKAL7C
Aircraft MD11/H-SDE1E2E3FGHIJ2J3J4J5M1RWXY/LB1D1

Departure

Time 2026-05-07 15:49
Airport Ezeiza International Airport - Ministro Pistarini (SAEZ)

Arrival

Time 2026-05-07 17:29
Airport Comodoro Arturo Merino Benítez International Airport (SCEL)
Time Latitude Longitude Altitude Speed Heading
2026-05-07 15:32 -34.80958 -58.53723 87 ft 0 kts 252°
2026-05-07 15:39 -34.80958 -58.53722 87 ft 2 kts 252°
2026-05-07 15:39 -34.80951 -58.53693 86 ft 4 kts 253°
2026-05-07 15:39 -34.80943 -58.53661 87 ft 4 kts 253°
2026-05-07 15:39 -34.80936 -58.53635 87 ft 4 kts 236°
2026-05-07 15:40 -34.80924 -58.53618 87 ft 4 kts 188°
2026-05-07 15:40 -34.80901 -58.53621 87 ft 4 kts 162°
2026-05-07 15:40 -34.80890 -58.53625 87 ft 0 kts 164°
2026-05-07 15:41 -34.80891 -58.53625 87 ft 1 kts 164°
2026-05-07 15:41 -34.80909 -58.53619 88 ft 5 kts 164°
2026-05-07 15:42 -34.80947 -58.53606 86 ft 7 kts 164°
2026-05-07 15:42 -34.81004 -58.53586 88 ft 9 kts 164°
2026-05-07 15:42 -34.81067 -58.53564 87 ft 10 kts 164°
2026-05-07 15:42 -34.81148 -58.53568 84 ft 14 kts 193°
2026-05-07 15:43 -34.81250 -58.53588 86 ft 14 kts 180°
2026-05-07 15:43 -34.81343 -58.53589 86 ft 14 kts 183°
2026-05-07 15:43 -34.81445 -58.53617 87 ft 15 kts 199°
2026-05-07 15:43 -34.81538 -58.53672 84 ft 15 kts 212°
2026-05-07 15:44 -34.81623 -58.53756 85 ft 13 kts 212°
2026-05-07 15:44 -34.81689 -58.53752 85 ft 11 kts 156°
2026-05-07 15:44 -34.81765 -58.53709 87 ft 12 kts 154°
2026-05-07 15:44 -34.81844 -58.53663 87 ft 13 kts 152°
2026-05-07 15:45 -34.81910 -58.53586 84 ft 14 kts 116°
2026-05-07 15:45 -34.81938 -58.53461 88 ft 18 kts 104°
2026-05-07 15:45 -34.81971 -58.53296 85 ft 23 kts 104°
2026-05-07 15:45 -34.82010 -58.53101 87 ft 23 kts 104°
2026-05-07 15:46 -34.82077 -58.52768 87 ft 21 kts 103°
2026-05-07 15:46 -34.82117 -58.52568 83 ft 27 kts 103°
2026-05-07 15:46 -34.82163 -58.52334 85 ft 28 kts 103°
2026-05-07 15:47 -34.82207 -58.52116 83 ft 27 kts 104°
2026-05-07 15:47 -34.82248 -58.51916 83 ft 16 kts 104°
2026-05-07 15:47 -34.82272 -58.51816 87 ft 8 kts 121°
2026-05-07 15:47 -34.82311 -58.51791 86 ft 7 kts 169°
2026-05-07 15:48 -34.82366 -58.51799 88 ft 9 kts 192°
2026-05-07 15:48 -34.82438 -58.51819 90 ft 12 kts 192°
2026-05-07 15:48 -34.82508 -58.51843 92 ft 6 kts 210°
2026-05-07 15:48 -34.82523 -58.51889 93 ft 7 kts 268°
2026-05-07 15:49 -34.82497 -58.52040 91 ft 53 kts 282°
2026-05-07 15:49 -34.82346 -58.52884 93 ft 148 kts 282°
2026-05-07 15:49 -34.82088 -58.54275 684 ft 173 kts 281°
2026-05-07 15:49 -34.81780 -58.55695 1904 ft 175 kts 281°
2026-05-07 15:50 -34.81480 -58.57109 2964 ft 178 kts 275°
2026-05-07 15:50 -34.81255 -58.58611 3522 ft 199 kts 274°
2026-05-07 15:50 -34.81181 -58.60426 3664 ft 232 kts 261°
2026-05-07 15:50 -34.81694 -58.62350 4319 ft 242 kts 238°
2026-05-07 15:51 -34.82718 -58.63971 5266 ft 251 kts 229°
2026-05-07 15:51 -34.83930 -58.65544 6137 ft 262 kts 226°
2026-05-07 15:51 -34.85215 -58.67153 6972 ft 269 kts 227°
2026-05-07 15:51 -34.86535 -58.68796 7876 ft 274 kts 227°
2026-05-07 15:52 -34.87876 -58.70466 8701 ft 281 kts 226°
2026-05-07 15:52 -34.88823 -58.71576 9203 ft 287 kts 225°
2026-05-07 15:52 -34.90334 -58.73213 9910 ft 300 kts 225°
2026-05-07 15:52 -34.91997 -58.74975 10048 ft 332 kts 224°
2026-05-07 15:53 -34.93826 -58.76893 10263 ft 358 kts 224°
2026-05-07 15:53 -34.95689 -58.78830 11190 ft 359 kts 224°
2026-05-07 15:53 -34.97578 -58.80807 12214 ft 357 kts 226°
2026-05-07 15:53 -34.99273 -58.82986 13229 ft 350 kts 238°
2026-05-07 15:54 -35.00440 -58.85545 14085 ft 344 kts 255°
2026-05-07 15:54 -35.00941 -58.88378 14762 ft 342 kts 268°
2026-05-07 15:54 -35.01065 -58.91280 15486 ft 343 kts 273°
2026-05-07 15:54 -35.01088 -58.94200 16222 ft 346 kts 274°
2026-05-07 15:55 -35.01103 -58.97142 16946 ft 348 kts 275°
2026-05-07 15:55 -35.01135 -59.00109 17658 ft 352 kts 275°
2026-05-07 15:55 -35.01183 -59.03069 18301 ft 355 kts 275°
2026-05-07 15:55 -35.01246 -59.06062 19032 ft 353 kts 275°
2026-05-07 15:56 -35.01316 -59.09072 19581 ft 357 kts 275°
2026-05-07 15:56 -35.01391 -59.12112 20110 ft 360 kts 276°
2026-05-07 15:56 -35.01467 -59.15175 20647 ft 363 kts 276°
2026-05-07 15:56 -35.01545 -59.18271 21197 ft 367 kts 276°
2026-05-07 15:57 -35.01612 -59.21390 21742 ft 369 kts 278°
2026-05-07 15:57 -35.01487 -59.24494 22306 ft 365 kts 285°
2026-05-07 15:57 -35.00943 -59.27492 22876 ft 360 kts 295°
2026-05-07 15:57 -34.99914 -59.30253 23453 ft 356 kts 305°
2026-05-07 15:58 -34.98450 -59.32666 23966 ft 354 kts 315°
2026-05-07 15:58 -34.96697 -59.34791 24462 ft 356 kts 319°
2026-05-07 15:58 -34.94844 -59.36815 24991 ft 359 kts 321°
2026-05-07 15:58 -34.92963 -59.38830 25529 ft 362 kts 321°
2026-05-07 15:59 -34.91067 -59.40876 26067 ft 365 kts 321°
2026-05-07 15:59 -34.89234 -59.42876 26554 ft 368 kts 321°
2026-05-07 15:59 -34.87330 -59.44973 27079 ft 371 kts 321°
2026-05-07 15:59 -34.85414 -59.47095 27590 ft 374 kts 321°
2026-05-07 16:00 -34.83485 -59.49238 28100 ft 377 kts 322°
2026-05-07 16:00 -34.81543 -59.51398 28598 ft 380 kts 322°
2026-05-07 16:00 -34.79586 -59.53576 29087 ft 383 kts 322°
2026-05-07 16:00 -34.77613 -59.55771 29555 ft 386 kts 323°
2026-05-07 16:01 -34.75647 -59.57957 29954 ft 389 kts 323°
2026-05-07 16:01 -34.73709 -59.60205 30396 ft 392 kts 320°
2026-05-07 16:01 -34.71921 -59.62733 30872 ft 397 kts 313°
2026-05-07 16:01 -34.70447 -59.65603 31336 ft 406 kts 305°
2026-05-07 16:02 -34.69369 -59.68817 31802 ft 416 kts 297°
2026-05-07 16:02 -34.68727 -59.72140 32236 ft 425 kts 291°
2026-05-07 16:02 -34.68293 -59.75717 32668 ft 429 kts 288°
2026-05-07 16:02 -34.67941 -59.79319 33098 ft 429 kts 288°
2026-05-07 16:03 -34.67595 -59.82914 33514 ft 428 kts 288°
2026-05-07 16:03 -34.67232 -59.86462 33837 ft 428 kts 289°
2026-05-07 16:03 -34.66841 -59.90039 34198 ft 427 kts 288°
2026-05-07 16:03 -34.66434 -59.93610 34509 ft 427 kts 288°
2026-05-07 16:04 -34.66016 -59.97182 34790 ft 427 kts 288°
2026-05-07 16:04 -34.65597 -60.00704 35055 ft 428 kts 287°
2026-05-07 16:04 -34.65169 -60.04282 35309 ft 428 kts 287°
2026-05-07 16:04 -34.64739 -60.07861 35561 ft 429 kts 287°
2026-05-07 16:05 -34.64307 -60.11454 35708 ft 430 kts 287°
2026-05-07 16:05 -34.63448 -60.18587 35785 ft 429 kts 285°
2026-05-07 16:06 -34.62585 -60.25730 35742 ft 426 kts 285°
2026-05-07 16:06 -34.61731 -60.32754 35747 ft 426 kts 285°
2026-05-07 16:07 -34.60861 -60.39864 35750 ft 426 kts 285°
2026-05-07 16:07 -34.60006 -60.46825 35795 ft 425 kts 285°
2026-05-07 16:08 -34.59133 -60.53896 35762 ft 423 kts 284°
2026-05-07 16:08 -34.58257 -60.60953 35763 ft 423 kts 285°
2026-05-07 16:09 -34.57378 -60.68008 35763 ft 423 kts 285°
2026-05-07 16:09 -34.56475 -60.75058 35763 ft 422 kts 285°
2026-05-07 16:10 -34.55568 -60.82083 35774 ft 425 kts 284°
2026-05-07 16:10 -34.54663 -60.89182 35779 ft 426 kts 284°
2026-05-07 16:11 -34.53699 -60.96266 35776 ft 425 kts 285°
2026-05-07 16:11 -34.52620 -61.03298 35778 ft 423 kts 286°
2026-05-07 16:12 -34.51521 -61.10338 35793 ft 428 kts 285°
2026-05-07 16:12 -34.50417 -61.17441 35791 ft 428 kts 285°
2026-05-07 16:13 -34.49315 -61.24542 35798 ft 428 kts 285°
2026-05-07 16:13 -34.48207 -61.31648 35798 ft 428 kts 285°
2026-05-07 16:14 -34.47098 -61.38730 35795 ft 434 kts 285°
2026-05-07 16:14 -34.45967 -61.45921 35812 ft 435 kts 285°
2026-05-07 16:15 -34.44831 -61.53124 35809 ft 435 kts 285°
2026-05-07 16:15 -34.43674 -61.60311 35808 ft 434 kts 285°
2026-05-07 16:16 -34.42517 -61.67478 35814 ft 433 kts 285°
2026-05-07 16:16 -34.41364 -61.74636 35818 ft 433 kts 285°
2026-05-07 16:17 -34.40210 -61.81794 35821 ft 433 kts 285°
2026-05-07 16:17 -34.39051 -61.88956 35820 ft 433 kts 285°
2026-05-07 16:18 -34.37888 -61.96113 35829 ft 433 kts 285°
2026-05-07 16:18 -34.36722 -62.03266 35823 ft 433 kts 285°
2026-05-07 16:19 -34.35552 -62.10405 35824 ft 433 kts 285°
2026-05-07 16:19 -34.34368 -62.17519 35834 ft 430 kts 285°
2026-05-07 16:20 -34.33195 -62.24572 35853 ft 431 kts 284°
2026-05-07 16:20 -34.32009 -62.31715 35844 ft 434 kts 284°
2026-05-07 16:21 -34.30819 -62.38873 35846 ft 434 kts 284°
2026-05-07 16:21 -34.29627 -62.46024 35849 ft 434 kts 284°
2026-05-07 16:22 -34.28429 -62.53175 35874 ft 434 kts 284°
2026-05-07 16:22 -34.27223 -62.60347 35857 ft 436 kts 284°
2026-05-07 16:23 -34.26011 -62.67530 35862 ft 436 kts 284°
2026-05-07 16:23 -34.24797 -62.74698 35866 ft 435 kts 284°
2026-05-07 16:24 -34.23579 -62.81862 35876 ft 434 kts 284°
2026-05-07 16:24 -34.22356 -62.89016 35875 ft 435 kts 283°
2026-05-07 16:25 -34.21128 -62.96188 35877 ft 436 kts 283°
2026-05-07 16:25 -34.19905 -63.03309 35885 ft 436 kts 283°
2026-05-07 16:26 -34.18661 -63.10473 35883 ft 436 kts 284°
2026-05-07 16:26 -34.17389 -63.17657 35885 ft 439 kts 283°
2026-05-07 16:27 -34.16124 -63.24868 35872 ft 439 kts 283°
2026-05-07 16:27 -34.14865 -63.32076 35892 ft 438 kts 283°
2026-05-07 16:28 -34.13561 -63.39209 35891 ft 437 kts 284°
2026-05-07 16:28 -34.12157 -63.46356 35901 ft 440 kts 283°
2026-05-07 16:29 -34.10724 -63.53589 35899 ft 444 kts 283°
2026-05-07 16:29 -34.09290 -63.60843 35903 ft 444 kts 283°
2026-05-07 16:30 -34.07866 -63.68042 35908 ft 444 kts 283°
2026-05-07 16:30 -34.06428 -63.75284 35928 ft 444 kts 283°
2026-05-07 16:31 -34.04984 -63.82537 35903 ft 446 kts 282°
2026-05-07 16:31 -34.03525 -63.89817 35915 ft 446 kts 283°
2026-05-07 16:32 -34.02065 -63.97076 35921 ft 445 kts 282°
2026-05-07 16:32 -34.00606 -64.04343 35928 ft 446 kts 283°
2026-05-07 16:33 -33.99141 -64.11637 35931 ft 448 kts 282°
2026-05-07 16:33 -33.97685 -64.18869 35928 ft 448 kts 282°
2026-05-07 16:34 -33.96211 -64.26163 35941 ft 448 kts 282°
2026-05-07 16:34 -33.94732 -64.33457 35936 ft 447 kts 282°
2026-05-07 16:35 -33.93247 -64.40753 35940 ft 451 kts 281°
2026-05-07 16:35 -33.91747 -64.48106 35941 ft 452 kts 281°
2026-05-07 16:36 -33.90228 -64.55451 35945 ft 452 kts 281°
2026-05-07 16:36 -33.88703 -64.62806 35958 ft 453 kts 281°
2026-05-07 16:37 -33.87192 -64.70109 35955 ft 452 kts 281°
2026-05-07 16:37 -33.85675 -64.77445 35964 ft 452 kts 281°
2026-05-07 16:38 -33.84145 -64.84787 35962 ft 453 kts 281°
2026-05-07 16:38 -33.82612 -64.92111 35961 ft 452 kts 281°
2026-05-07 16:39 -33.81073 -64.99464 35929 ft 455 kts 279°
2026-05-07 16:39 -33.79512 -65.06916 35973 ft 461 kts 279°
2026-05-07 16:40 -33.78205 -65.13132 35974 ft 462 kts 279°
2026-05-07 16:40 -33.76622 -65.20626 35974 ft 462 kts 279°
2026-05-07 16:41 -33.75038 -65.28109 35973 ft 462 kts 279°
2026-05-07 16:41 -33.73444 -65.35609 35963 ft 465 kts 278°
2026-05-07 16:42 -33.71754 -65.43115 35966 ft 466 kts 279°
2026-05-07 16:42 -33.69990 -65.50604 35964 ft 466 kts 279°
2026-05-07 16:43 -33.68238 -65.58034 35971 ft 465 kts 279°
2026-05-07 16:43 -33.66481 -65.65510 35988 ft 467 kts 278°
2026-05-07 16:44 -33.64718 -65.73010 35992 ft 467 kts 278°
2026-05-07 16:44 -33.62960 -65.80460 35989 ft 467 kts 278°
2026-05-07 16:45 -33.61183 -65.87965 36003 ft 467 kts 278°
2026-05-07 16:45 -33.59402 -65.95463 35986 ft 468 kts 277°
2026-05-07 16:46 -33.57614 -66.02978 35988 ft 469 kts 277°
2026-05-07 16:46 -33.55820 -66.10487 36001 ft 468 kts 277°
2026-05-07 16:47 -33.54023 -66.17988 36001 ft 468 kts 277°
2026-05-07 16:47 -33.52221 -66.25485 35978 ft 468 kts 276°
2026-05-07 16:48 -33.50426 -66.32934 35999 ft 469 kts 276°
2026-05-07 16:48 -33.48369 -66.40394 36004 ft 474 kts 280°
2026-05-07 16:49 -33.46024 -66.47801 35999 ft 475 kts 281°
2026-05-07 16:49 -33.43663 -66.55188 35990 ft 475 kts 281°
2026-05-07 16:50 -33.41401 -66.62609 36003 ft 472 kts 277°
2026-05-07 16:50 -33.39512 -66.70092 36018 ft 469 kts 275°
2026-05-07 16:51 -33.37716 -66.77605 36023 ft 469 kts 275°
2026-05-07 16:51 -33.35902 -66.85100 36023 ft 469 kts 275°
2026-05-07 16:52 -33.34063 -66.92596 35997 ft 471 kts 274°
2026-05-07 16:52 -33.32205 -67.00135 36017 ft 473 kts 274°
2026-05-07 16:53 -33.30350 -67.07621 36016 ft 473 kts 274°
2026-05-07 16:53 -33.28480 -67.15146 36027 ft 471 kts 274°
2026-05-07 16:54 -33.26612 -67.22651 35957 ft 471 kts 274°
2026-05-07 16:54 -33.24621 -67.30172 36023 ft 477 kts 276°
2026-05-07 16:55 -33.22472 -67.37698 36024 ft 478 kts 276°
2026-05-07 16:55 -33.20315 -67.45209 36025 ft 478 kts 276°
2026-05-07 16:56 -33.18183 -67.52679 36024 ft 478 kts 276°
2026-05-07 16:56 -33.14972 -67.63927 36020 ft 476 kts 276°
2026-05-07 16:57 -33.12833 -67.71406 36023 ft 476 kts 276°
2026-05-07 16:57 -33.10732 -67.78887 36024 ft 475 kts 275°
2026-05-07 16:58 -33.08708 -67.86387 36019 ft 474 kts 275°
2026-05-07 16:58 -33.06700 -67.93878 36021 ft 474 kts 275°
2026-05-07 16:59 -33.04683 -68.01368 36019 ft 474 kts 275°
2026-05-07 16:59 -33.02673 -68.08804 36021 ft 474 kts 275°
2026-05-07 17:00 -33.00632 -68.16330 36013 ft 474 kts 275°
2026-05-07 17:00 -32.98597 -68.23809 36019 ft 475 kts 275°
2026-05-07 17:01 -32.96569 -68.31248 36022 ft 475 kts 275°
2026-05-07 17:01 -32.94523 -68.38730 36022 ft 475 kts 275°
2026-05-07 17:02 -32.92473 -68.46207 36017 ft 475 kts 275°
2026-05-07 17:02 -32.90418 -68.53680 35978 ft 475 kts 275°
2026-05-07 17:03 -32.88355 -68.61175 36016 ft 477 kts 275°
2026-05-07 17:03 -32.86277 -68.68685 36020 ft 478 kts 275°
2026-05-07 17:04 -32.84178 -68.76177 36019 ft 477 kts 275°
2026-05-07 17:04 -32.83376 -68.79930 36017 ft 460 kts 265°
2026-05-07 17:04 -32.83143 -68.83645 36020 ft 442 kts 256°
2026-05-07 17:05 -32.83522 -68.90834 35996 ft 432 kts 252°
2026-05-07 17:05 -32.84031 -68.97968 35993 ft 433 kts 252°
2026-05-07 17:06 -32.84418 -69.05113 36029 ft 435 kts 253°
2026-05-07 17:06 -32.84759 -69.12266 36006 ft 436 kts 253°
2026-05-07 17:07 -32.85078 -69.19465 35984 ft 436 kts 254°
2026-05-07 17:07 -32.85379 -69.26586 35750 ft 419 kts 254°
2026-05-07 17:08 -32.85513 -69.30001 35372 ft 409 kts 254°
2026-05-07 17:08 -32.85654 -69.33378 34891 ft 409 kts 253°
2026-05-07 17:08 -32.85807 -69.36748 34399 ft 408 kts 253°
2026-05-07 17:08 -32.85957 -69.40115 33909 ft 408 kts 252°
2026-05-07 17:09 -32.86111 -69.43491 33390 ft 410 kts 253°
2026-05-07 17:09 -32.86261 -69.46891 32883 ft 412 kts 253°
2026-05-07 17:09 -32.86408 -69.50305 32393 ft 414 kts 253°
2026-05-07 17:09 -32.86551 -69.53729 31866 ft 414 kts 253°
2026-05-07 17:10 -32.86688 -69.57140 31425 ft 414 kts 253°
2026-05-07 17:10 -32.86830 -69.60572 30929 ft 416 kts 254°
2026-05-07 17:10 -32.86973 -69.64015 30393 ft 417 kts 254°
2026-05-07 17:10 -32.87114 -69.67477 29857 ft 420 kts 255°
2026-05-07 17:11 -32.87254 -69.70948 29276 ft 421 kts 255°
2026-05-07 17:11 -32.87393 -69.74444 28709 ft 423 kts 255°
2026-05-07 17:11 -32.87530 -69.77931 28134 ft 422 kts 256°
2026-05-07 17:11 -32.87657 -69.81431 27646 ft 425 kts 256°
2026-05-07 17:12 -32.87781 -69.84943 27104 ft 424 kts 256°
2026-05-07 17:12 -32.87904 -69.88439 26519 ft 423 kts 256°
2026-05-07 17:12 -32.88027 -69.91911 25932 ft 417 kts 257°
2026-05-07 17:12 -32.88152 -69.95338 25502 ft 412 kts 257°
2026-05-07 17:13 -32.88262 -69.98745 25138 ft 411 kts 259°
2026-05-07 17:13 -32.88176 -70.02174 24733 ft 419 kts 263°
2026-05-07 17:13 -32.87930 -70.05650 23897 ft 420 kts 266°
2026-05-07 17:13 -32.87605 -70.09072 23089 ft 411 kts 266°
2026-05-07 17:14 -32.87264 -70.12416 22389 ft 408 kts 266°
2026-05-07 17:14 -32.86935 -70.15749 21722 ft 405 kts 266°
2026-05-07 17:14 -32.86614 -70.19066 21142 ft 401 kts 267°
2026-05-07 17:14 -32.86303 -70.22345 20523 ft 398 kts 266°
2026-05-07 17:15 -32.86003 -70.25579 19983 ft 397 kts 266°
2026-05-07 17:15 -32.85702 -70.28831 19508 ft 393 kts 266°
2026-05-07 17:15 -32.85404 -70.32062 19179 ft 394 kts 266°
2026-05-07 17:15 -32.85102 -70.35298 18787 ft 393 kts 266°
2026-05-07 17:16 -32.84800 -70.38530 17933 ft 391 kts 267°
2026-05-07 17:16 -32.84500 -70.41722 17120 ft 387 kts 268°
2026-05-07 17:16 -32.84205 -70.44880 16471 ft 384 kts 269°
2026-05-07 17:16 -32.83911 -70.48027 15878 ft 382 kts 270°
2026-05-07 17:17 -32.83618 -70.51161 15439 ft 380 kts 270°
2026-05-07 17:17 -32.83324 -70.54254 15220 ft 368 kts 270°
2026-05-07 17:17 -32.83036 -70.57194 15110 ft 348 kts 270°
2026-05-07 17:17 -32.82764 -70.59982 14991 ft 331 kts 270°
2026-05-07 17:18 -32.82508 -70.62640 14860 ft 315 kts 270°
2026-05-07 17:18 -32.82267 -70.65186 14628 ft 308 kts 270°
2026-05-07 17:18 -32.82150 -70.67699 14197 ft 300 kts 261°
2026-05-07 17:18 -32.82579 -70.70066 13591 ft 288 kts 242°
2026-05-07 17:19 -32.83661 -70.72009 13085 ft 281 kts 224°
2026-05-07 17:19 -32.85043 -70.73652 12579 ft 281 kts 220°
2026-05-07 17:19 -32.86486 -70.75229 12082 ft 282 kts 220°
2026-05-07 17:19 -32.87935 -70.76801 11594 ft 282 kts 220°
2026-05-07 17:20 -32.89383 -70.78377 11098 ft 282 kts 220°
2026-05-07 17:20 -32.90839 -70.79939 10601 ft 281 kts 216°
2026-05-07 17:20 -32.92525 -70.81032 10157 ft 274 kts 195°
2026-05-07 17:20 -32.94391 -70.81507 9663 ft 273 kts 187°
2026-05-07 17:21 -32.96266 -70.81807 9196 ft 272 kts 186°
2026-05-07 17:21 -32.98117 -70.82075 8739 ft 270 kts 186°
2026-05-07 17:21 -32.99983 -70.82305 8330 ft 268 kts 181°
2026-05-07 17:21 -33.01836 -70.82303 7984 ft 264 kts 177°
2026-05-07 17:22 -33.03658 -70.82218 7611 ft 260 kts 176°
2026-05-07 17:22 -33.05466 -70.82114 7246 ft 261 kts 176°
2026-05-07 17:22 -33.07265 -70.82007 6764 ft 254 kts 177°
2026-05-07 17:22 -33.09020 -70.81903 6362 ft 252 kts 177°
2026-05-07 17:23 -33.10762 -70.81801 5982 ft 250 kts 177°
2026-05-07 17:23 -33.12488 -70.81700 5617 ft 246 kts 177°
2026-05-07 17:23 -33.14192 -70.81602 5323 ft 243 kts 177°
2026-05-07 17:23 -33.15851 -70.81507 5260 ft 228 kts 177°
2026-05-07 17:24 -33.17363 -70.81421 5283 ft 215 kts 177°
2026-05-07 17:24 -33.18839 -70.81339 5181 ft 213 kts 177°
2026-05-07 17:24 -33.20312 -70.81258 4905 ft 211 kts 177°
2026-05-07 17:24 -33.21753 -70.81179 4636 ft 210 kts 177°
2026-05-07 17:25 -33.23227 -70.81100 4344 ft 209 kts 177°
2026-05-07 17:25 -33.24670 -70.81022 4073 ft 205 kts 177°
2026-05-07 17:25 -33.25978 -70.80954 3791 ft 175 kts 178°
2026-05-07 17:25 -33.27134 -70.80892 3561 ft 161 kts 178°
2026-05-07 17:26 -33.28236 -70.80834 3375 ft 158 kts 177°
2026-05-07 17:26 -33.29333 -70.80776 3203 ft 158 kts 178°
2026-05-07 17:26 -33.30433 -70.80721 2967 ft 159 kts 177°
2026-05-07 17:26 -33.31165 -70.80682 2834 ft 159 kts 176°
2026-05-07 17:27 -33.32273 -70.80622 2628 ft 161 kts 176°
2026-05-07 17:27 -33.33391 -70.80562 2389 ft 161 kts 176°
2026-05-07 17:27 -33.34514 -70.80504 2132 ft 161 kts 178°
2026-05-07 17:27 -33.35626 -70.80451 1892 ft 158 kts 177°
2026-05-07 17:28 -33.36707 -70.80395 1707 ft 153 kts 178°
2026-05-07 17:28 -33.37734 -70.80348 1583 ft 136 kts 178°
2026-05-07 17:28 -33.38561 -70.80301 1581 ft 101 kts 177°
2026-05-07 17:28 -33.39143 -70.80270 1581 ft 67 kts 177°
2026-05-07 17:29 -33.39553 -70.80247 1579 ft 52 kts 177°
2026-05-07 17:29 -33.39848 -70.80221 1580 ft 34 kts 167°
2026-05-07 17:29 -33.40031 -70.80111 1577 ft 14 kts 145°
2026-05-07 17:29 -33.40110 -70.80045 1575 ft 14 kts 144°
2026-05-07 17:30 -33.40160 -70.79966 1573 ft 10 kts 102°
2026-05-07 17:30 -33.40136 -70.79909 1573 ft 8 kts 31°
2026-05-07 17:30 -33.40068 -70.79906 1573 ft 12 kts 357°
2026-05-07 17:30 -33.39990 -70.79911 1573 ft 11 kts 357°
2026-05-07 17:31 -33.39916 -70.79917 1572 ft 12 kts 356°
2026-05-07 17:31 -33.39831 -70.79924 1572 ft 12 kts 356°
2026-05-07 17:31 -33.39754 -70.79929 1572 ft 11 kts 357°
2026-05-07 17:31 -33.39670 -70.79934 1572 ft 14 kts 357°
2026-05-07 17:32 -33.39576 -70.79940 1572 ft 10 kts 357°
2026-05-07 17:32 -33.39530 -70.79907 1572 ft 8 kts 64°
2026-05-07 17:32 -33.39526 -70.79818 1572 ft 15 kts 88°
2026-05-07 17:32 -33.39521 -70.79665 1572 ft 21 kts 88°
2026-05-07 17:33 -33.39513 -70.79483 1572 ft 22 kts 87°
2026-05-07 17:33 -33.39505 -70.79309 1572 ft 20 kts 87°
2026-05-07 17:33 -33.39499 -70.79148 1572 ft 19 kts 87°
2026-05-07 17:33 -33.39493 -70.78999 1572 ft 17 kts 88°
2026-05-07 17:34 -33.39504 -70.78916 1572 ft 7 kts 126°
2026-05-07 17:34 -33.39569 -70.78888 1572 ft 14 kts 176°
2026-05-07 17:34 -33.39678 -70.78882 1572 ft 17 kts 178°
2026-05-07 17:34 -33.39808 -70.78877 1572 ft 19 kts 178°
2026-05-07 17:35 -33.39939 -70.78870 1571 ft 19 kts 176°
2026-05-07 17:35 -33.40064 -70.78861 1571 ft 17 kts 176°
2026-05-07 17:35 -33.40185 -70.78854 1571 ft 18 kts 178°
2026-05-07 17:35 -33.40302 -70.78852 1571 ft 16 kts 179°
2026-05-07 17:36 -33.40409 -70.78849 1571 ft 14 kts 179°
2026-05-07 17:36 -33.40463 -70.78856 1571 ft 6 kts 202°
2026-05-07 17:36 -33.40494 -70.78886 1571 ft 5 kts 225°
2026-05-07 17:36 -33.40514 -70.78910 1571 ft 2 kts 226°
2026-05-07 17:37 -33.40521 -70.78918 1571 ft 1 kts 226°
2026-05-07 17:37 -33.40523 -70.78921 1571 ft 0 kts 226°